• In Hungary
  • List of Countries
  • For 7 days
  • Water Temperature
  • Satellite Maps
  • Weather Map
  • News
  • Weather Widgets
  • user-avatar
    Login

    Hourly Weather Rybnica

    Today, 21 June, Thursday

    Time Temperature Precipitation Wind Pressure Humidity
    00:00 +19°C° 0 mm 2 mps 727 mmHg 80%
    01:00 +18°C° 0 mm 3 mps 726 mmHg 75%
    02:00 +18°C° 0 mm 3 mps 726 mmHg 76%
    03:00 +18°C° 0 mm 3 mps 726 mmHg 77%
    04:00 +18°C° 0 mm 3 mps 726 mmHg 78%
    05:00 +19°C° 0 mm 3 mps 725 mmHg 75%
    06:00 +21°C° 0 mm 3 mps 725 mmHg 72%
    07:00 +24°C° 0 mm 3 mps 725 mmHg 67%
    08:00 +25°C° 0 mm 4 mps 724 mmHg 62%
    09:00 +27°C° 0 mm 4 mps 724 mmHg 56%
    10:00 +28°C° 0 mm 5 mps 723 mmHg 51%
    11:00 +28°C° 0.1 mm 6 mps 723 mmHg 51%
    12:00 +29°C° 0.1 mm 6 mps 722 mmHg 50%
    13:00 +29°C° 0.1 mm 7 mps 722 mmHg 49%
    14:00 +27°C° 0.5 mm 7 mps 722 mmHg 57%
    15:00 +24°C° 0.5 mm 7 mps 722 mmHg 65%
    16:00 +22°C° 0.5 mm 8 mps 722 mmHg 73%
    17:00 +20°C° 0.1 mm 7 mps 722 mmHg 72%
    18:00 +17°C° 0.1 mm 7 mps 723 mmHg 70%
    19:00 +15°C° 0.1 mm 6 mps 723 mmHg 69%
    20:00 +13°C° 0 mm 6 mps 724 mmHg 67%
    21:00 +12°C° 0 mm 5 mps 725 mmHg 64%
    22:00 +10°C° 0 mm 5 mps 725 mmHg 62%
    23:00 +10°C° 0 mm 4 mps 726 mmHg 67%

    Tomorrow, 22 June, Friday

    Time Temperature Precipitation Wind Pressure Humidity
    00:00 +8°C° 0 mm 4 mps 726 mmHg 71%
    01:00 +7°C° 0 mm 4 mps 726 mmHg 76%
    02:00 +7°C° 0 mm 4 mps 726 mmHg 79%
    03:00 +6°C° 0 mm 4 mps 726 mmHg 82%
    04:00 +5°C° 0 mm 4 mps 726 mmHg 85%
    05:00 +7°C° 0 mm 4 mps 727 mmHg 79%
    06:00 +8°C° 0 mm 5 mps 727 mmHg 73%
    07:00 +9°C° 0 mm 6 mps 727 mmHg 67%
    08:00 +9°C° 0 mm 6 mps 727 mmHg 66%
    09:00 +10°C° 0 mm 6 mps 727 mmHg 65%
    10:00 +10°C° 0 mm 6 mps 727 mmHg 64%
    11:00 +10°C° 0.2 mm 6 mps 727 mmHg 65%
    12:00 +11°C° 0.2 mm 6 mps 727 mmHg 66%
    13:00 +11°C° 0.2 mm 6 mps 727 mmHg 67%
    14:00 +13°C° 0.3 mm 6 mps 727 mmHg 66%
    15:00 +13°C° 0.3 mm 6 mps 727 mmHg 64%
    16:00 +14°C° 0.3 mm 6 mps 727 mmHg 63%
    17:00 +13°C° 0.1 mm 5 mps 727 mmHg 66%
    18:00 +13°C° 0.1 mm 5 mps 727 mmHg 69%
    19:00 +12°C° 0.1 mm 4 mps 727 mmHg 72%
    20:00 +11°C° 0 mm 4 mps 727 mmHg 77%
    21:00 +10°C° 0 mm 4 mps 727 mmHg 81%
    22:00 +8°C° 0 mm 4 mps 728 mmHg 86%
    23:00 +8°C° 0 mm 4 mps 728 mmHg 86%

    Day after tomorrow, 23 June, Saturday

    Time Temperature Precipitation Wind Pressure Humidity
    00:00 +8°C° 0 mm 4 mps 728 mmHg 87%
    01:00 +8°C° 0 mm 4 mps 728 mmHg 87%
    02:00 +8°C° 0.1 mm 4 mps 728 mmHg 88%
    03:00 +8°C° 0.1 mm 5 mps 728 mmHg 89%
    04:00 +8°C° 0.1 mm 5 mps 728 mmHg 89%
    05:00 +8°C° 0.1 mm 5 mps 728 mmHg 85%
    06:00 +8°C° 0.1 mm 6 mps 728 mmHg 82%
    07:00 +9°C° 0.1 mm 6 mps 728 mmHg 78%
    08:00 +9°C° 0 mm 6 mps 728 mmHg 75%
    09:00 +10°C° 0 mm 6 mps 728 mmHg 72%
    10:00 +10°C° 0 mm 6 mps 728 mmHg 70%
    11:00 +10°C° 0.1 mm 6 mps 728 mmHg 72%
    12:00 +10°C° 0.1 mm 6 mps 728 mmHg 75%
    13:00 +10°C° 0.1 mm 6 mps 728 mmHg 78%
    14:00 +10°C° 0 mm 6 mps 728 mmHg 77%
    15:00 +10°C° 0 mm 6 mps 728 mmHg 77%
    16:00 +11°C° 0 mm 6 mps 728 mmHg 76%
    17:00 +11°C° 0 mm 6 mps 728 mmHg 77%
    18:00 +10°C° 0 mm 5 mps 728 mmHg 77%
    19:00 +10°C° 0 mm 5 mps 728 mmHg 77%
    20:00 +11°C° 0 mm 4 mps 728 mmHg 82%
    21:00 +10°C° 0 mm 4 mps 728 mmHg 86%
    22:00 +9°C° 0 mm 3 mps 728 mmHg 90%
    23:00 +9°C° 0 mm 3 mps 728 mmHg 92%

    24 June, Sunday

    Time Temperature Precipitation Wind Pressure Humidity
    00:00 +9°C° 0 mm 3 mps 728 mmHg 94%
    01:00 +8°C° 0 mm 3 mps 728 mmHg 95%
    02:00 +8°C° 0 mm 3 mps 728 mmHg 95%
    03:00 +8°C° 0 mm 3 mps 728 mmHg 95%
    04:00 +8°C° 0 mm 3 mps 728 mmHg 95%
    05:00 +9°C° 0 mm 3 mps 728 mmHg 92%
    06:00 +10°C° 0 mm 3 mps 728 mmHg 90%
    07:00 +11°C° 0 mm 3 mps 728 mmHg 87%
    08:00 +11°C° 0.1 mm 3 mps 728 mmHg 86%
    09:00 +12°C° 0.1 mm 3 mps 728 mmHg 85%
    10:00 +12°C° 0.1 mm 3 mps 728 mmHg 84%
    11:00 +13°C° 0.1 mm 4 mps 728 mmHg 79%
    12:00 +14°C° 0.1 mm 4 mps 728 mmHg 73%
    13:00 +15°C° 0.1 mm 4 mps 728 mmHg 68%
    14:00 +17°C° 0.1 mm 4 mps 728 mmHg 66%
    15:00 +17°C° 0.1 mm 4 mps 728 mmHg 64%
    16:00 +17°C° 0.1 mm 4 mps 728 mmHg 62%
    17:00 +17°C° 0.1 mm 3 mps 728 mmHg 66%
    18:00 +16°C° 0.1 mm 3 mps 728 mmHg 71%
    19:00 +15°C° 0.1 mm 2 mps 728 mmHg 75%
    20:00 +14°C° 0 mm 2 mps 728 mmHg 81%
    21:00 +12°C° 0 mm 2 mps 728 mmHg 86%
    22:00 +10°C° 0 mm 2 mps 728 mmHg 92%
    23:00 +9°C° 0 mm 2 mps 728 mmHg 92%

    25 June, Monday

    Time Temperature Precipitation Wind Pressure Humidity
    00:00 +10°C° 0 mm 1 mps 728 mmHg 93%
    01:00 +10°C° 0 mm 1 mps 728 mmHg 94%
    02:00 +9°C° 0 mm 1 mps 728 mmHg 94%
    03:00 +9°C° 0 mm 1 mps 728 mmHg 94%
    04:00 +9°C° 0 mm 1 mps 728 mmHg 95%
    05:00 +11°C° 0 mm 1 mps 729 mmHg 90%
    06:00 +12°C° 0 mm 1 mps 729 mmHg 84%
    07:00 +14°C° 0 mm 1 mps 730 mmHg 79%
    08:00 +16°C° 0.1 mm 2 mps 730 mmHg 71%
    09:00 +17°C° 0.1 mm 2 mps 730 mmHg 63%
    10:00 +19°C° 0.1 mm 3 mps 730 mmHg 55%
    11:00 +20°C° 0.2 mm 3 mps 730 mmHg 50%
    12:00 +21°C° 0.2 mm 3 mps 730 mmHg 45%
    13:00 +21°C° 0.2 mm 3 mps 730 mmHg 40%
    14:00 +21°C° 0 mm 3 mps 730 mmHg 40%
    15:00 +21°C° 0 mm 4 mps 730 mmHg 40%
    16:00 +21°C° 0 mm 4 mps 730 mmHg 41%
    17:00 +20°C° 0 mm 3 mps 730 mmHg 48%
    18:00 +19°C° 0 mm 3 mps 730 mmHg 55%
    19:00 +18°C° 0 mm 2 mps 730 mmHg 62%
    20:00 +16°C° 0 mm 2 mps 730 mmHg 66%
    21:00 +15°C° 0 mm 1 mps 730 mmHg 71%
    22:00 +13°C° 0 mm 1 mps 730 mmHg 76%
    23:00 +13°C° 0 mm 1 mps 730 mmHg 77%

    26 June, Tuesday

    Time Temperature Precipitation Wind Pressure Humidity
    00:00 +13°C° 0 mm 1 mps 730 mmHg 77%
    01:00 +12°C° 0 mm 1 mps 731 mmHg 78%
    02:00 +12°C° 0 mm 1 mps 730 mmHg 79%
    03:00 +12°C° 0 mm 1 mps 730 mmHg 80%
    04:00 +12°C° 0 mm 1 mps 730 mmHg 81%
    05:00 +14°C° 0 mm 1 mps 731 mmHg 75%
    06:00 +16°C° 0 mm 1 mps 731 mmHg 69%
    07:00 +17°C° 0 mm 2 mps 731 mmHg 63%
    08:00 +19°C° 0.1 mm 2 mps 731 mmHg 59%
    09:00 +20°C° 0.1 mm 3 mps 731 mmHg 55%
    10:00 +21°C° 0.1 mm 3 mps 731 mmHg 51%
    11:00 +21°C° 0.2 mm 3 mps 731 mmHg 55%
    12:00 +20°C° 0.2 mm 3 mps 731 mmHg 58%
    13:00 +20°C° 0.2 mm 3 mps 730 mmHg 61%
    14:00 +20°C° 0.2 mm 3 mps 730 mmHg 61%
    15:00 +21°C° 0.2 mm 3 mps 730 mmHg 60%
    16:00 +21°C° 0.2 mm 3 mps 730 mmHg 59%
    17:00 +20°C° 0.2 mm 3 mps 729 mmHg 65%
    18:00 +19°C° 0.2 mm 3 mps 729 mmHg 72%
    19:00 +18°C° 0.2 mm 2 mps 729 mmHg 78%
    20:00 +17°C° 0.1 mm 2 mps 729 mmHg 83%
    21:00 +15°C° 0.1 mm 2 mps 729 mmHg 88%
    22:00 +14°C° 0.1 mm 2 mps 729 mmHg 93%
    23:00 +14°C° 0.1 mm 2 mps 729 mmHg 94%
    Show more